EHI
0 0 0 0 0 0 0 0 0 0 0 0 0 0 0 0 0 0 0 0 0 0 0 0 0 0 0 0 0 0 0 0 0 0 0 0 0 0 0 0 0 0 0 0 0 0 0 0 0
0 0 0 0 0 0 0 0 0 0 0 0 0 0 0 0 0 0 0 0 0 0 0 0 0 0 0 0 0 0 0 0 0 0 0 0 0 0 0 0 0 0 0 0 0 0 0 0 0
0 0 0 0 0 0 0 0 0 0 0 0 0 0 0 0 0 0 0 0 0 0 0 0 0 0 0 0 0 0 0 0 0 0 0 0 0 0 0 0 0 0 0 0 0 0 0 0 0
0 0 0 0 0 0 0 0 0 0 0 0 0 0 0 0 0 0 0 0 0 0 0 0 0 0 0 0 0 0 0 0 0 0 0 0 0 0 0 0 0 0 0 0 0 0 0 0 0
0 0 0 0 0 0 0 0 0 0 0 0 0 0 0 0 0 0 0 0 0 0 0 0 0 0 0 0 0 0 0 0 0 0 0 0 0 0 0 0 0 0 0 0 0 0 0 0 0
0 0 0 0 0 0 0 0 0 0 0 0 0 0 0 0 0 0 0 0 0 0 0 0 0 0 0 0 0 0 0 0 0 0 0 0 0 0 0 0 0 0 0 0 0 0 0 0 0
0 0 0 0 0 0 0 0 0 0 0 0 0 0 0 0 0 0 0 0 0 0 0 0 0 0 0 0 0 0 0 0 0 0 0 0 0 0 0 0 0 0 0 0 0 0 0 0 0
0 0 0 0 0 0 0 0 0 0 0 0 0 0 0 0 0 0 0 0 0 0 0 0 0 0 0 0 0 0 0 0 0 0 0 0 0 0 0 0 0 0 0 0 0 0 0 0 0
0 0 0 0 0 0 0 0 0 0 0 0 0 0 0 0 0 0 0 0 0 0 0 0 0 0 0 0 0 0 0 0 0 0 0 0 0 0 0 0 0 0 0 0 0 0 0 0 0
0 0 0 0 0 0 0 0 0 0 0 0 0 0 0 0 0 0 0 0 0 0 0 0 0 0 0 0 0 0 0 0 0 0 0 0 0 0 0 0 0 0 0 0 0 0 0 0 0
0 0 0 0 0 0 0 0 0 0 0 0 0 0 0 0 0 0 0 0 0 0 0 0 0 0 0 0 0 0 0 0 0 0 0 0 0 0 0 0 0 0 0 0 0 0 0 0 0
0 0 0 0 0 0 0 0 0 0 0 0 0 0 0 0 0 0 0 0 0 0 0 0 0 0 0 0 0 0 0 0 0 0 0 0 0 0 0 0 0 0 0 0 0 0 0 0 0
0 0 0 0 0 0 0 0 0 0 0 0 0 0 0 0 0 0 0 0 0 0 0 0 0 0 0 0 0 0 0 0 0 0 0 0 0 0 0 0 0 0 0 0 0 0 0 0 0
0 0 0 0 0 0 0 0 0 0 0 0 0 0 0 0 0 0 0 0 0 0 0 0 0 0 0 0 0 0 0 0 0 0 0 0 0 0 0 0 0 0 0 0 0 0 0 0 0
0 0 0 0 0 0 0 0 0 0 0 0 0 0 0 0 0 0 0 0 0 0 0 0 0 0 0 0 0 0 0 0 0 0 0 0 0 0 0 0 0 0 0 0 0 0 0 0 0
0 0 0 0 0 0 0 0 0 0 0 0 0 0 0 0 0 0 0 0 0 0 0 0 0 0 0 0 0 0 0 0 0 0 0 0 0 0 0 0 0 0 0 0 0 0 0 0 0
0 0 0 0 0 0 0 0 0 0 0 0 0 0 0 0 0 0 0 0 0 0 0 0 0 0 0 0 0 0 0 0 0 0 0 0 0 0 0 0 0 0 0 0 0 0 0 0 0
0 0 0 0 0 0 0 0 0 0 0 0 0 0 0 0 0 0 0 0 0 0 0 0 0 0 0 0 0 0 0 0 0 0 0 0 0 0 0 0 0 0 0 0 0 0 0 0 0
0 0 0 0 0 0 0 0 0 0 0 0 0 0 0 0 0 0 0 0 0 0 0 0 0 0 0 0 0 0 0 0 0 0 0 0 0 0 0 0 0 0 0 0 0 0 0 0 0
0 0 0 0 0 0 0 0 0 0 0 0 0 0 0 0 0 0 0 0 0 0 0 0 0 0 0 0 0 0 0 0 0 0 0 0 0 0 0 0 0 0 0 0 0 0 0 0 0
0 0 0 0 0 0 0 0 0 0 0 0 0 0 0 0 0 0 0 0 0 0 0 0 0 0 0 0 0 0 0 0 0 0 0 0 0 0 0 0 0 0 0 0 0 0 0 0 0
0 0 0 0 0 0 0 0 0 0 0 0 0 0 0 0 0 0 0 0 0 0 0 0 0 0 0 0 0 0 0 0 0 0 0 0 0 0 0 0 0 0 0 0 0 0 0 0 0
0 0 0 0 0 0 0 0 0 0 0 0 0 0 0 0 0 0 0 0 0 0 0 0 0 0 0 0 0 0 0 0 0 0 0 0 0 0 0 0 0 0 0 0 0 0 0 0 0
0 0 0 0 0 0 0 0 0 0 0 0 0 0 0 0 0 0 0 0 0 0 0 0 0 0 0 0 0 0 0 0 0 0 0 0 0 0 0 0 0 0 0 0 0 0 0 0 0
0 0 0 0 0 0 0 0 0 0 0 0 0 0 0 0 0 0 0 0 0 0 0 0 0 0 0 0 0 0 0 0 0 0 0 0 0 0 0 0 0 0 0 0 0 0 0 0 0
0 0 0 0 0 0 0 0 0 0 0 0 0 0 0 0 0 0 0 0 0 0 0 0 0 0 0 0 0 0 0 0 0 0 0 0 0 0 0 0 0 0 0 0 0 0 0 0 0
0 0 0 0 0 0 0 0 0 0 0 0 0 0 0 0 0 0 0 0 0 0 0 0 0 0 0 0 0 0 0 0 0 0 0 0 0 0 0 0 0 0 0 0 0 0 0 0 0
0 0 0 0 0 0 0 0 0 0 0 0 0 0 0 0 0 0 0 0 0 0 0 0 0 0 0 0 0 0 0 0 0 0 0 0 0 0 0 0 0 0 0 0 0 0 0 0 0
0 0 0 0 0 0 0 0 0 0 0 0 0 0 0 0 0 0 0 0 0 0 0 0 0 0 0 0 0 0 0 0 0 0 0 0 0 0 0 0 0 0 0 0 0 0 0 0 0
0 0 0 0 0 0 0 0 0 0 0 0 0 0 0 0 0 0 0 0 0 0 0 0 0 0 0 0 0 0 0 0 0 0 0 0 0 0 0 0 0 0 0 0 0 0 0 0 0
Wind_Speed
5 2 3 4 6 5 2 4 4 4 3 3 4 6 5 4 4 4 2 11 12 15 16 20 24 23 21 20 18 17 16 15 14 13 12 12 11 11 10 10 10 10 11 11 12 12 12 13 13
2 2 5 5 5 1 4 3 6 6 6 4 3 5 3 4 2 4 6 10 15 16 14 15 24 23 22 21 19 18 17 16 15 14 13 12 12 11 10 10 10 10 10 10 10 11 11 11 12
2 2 4 5 3 5 4 4 6 3 4 5 4 3 4 5 5 8 7 14 16 15 12 16 26 24 23 22 21 19 18 17 16 15 14 13 12 11 11 10 10 10 9 9 9 10 10 10 10
3 4 5 4 4 7 6 7 5 4 3 3 5 3 3 3 7 8 9 17 17 14 11 15 26 25 23 22 21 20 19 18 17 16 15 14 13 12 11 11 10 9 9 8 8 8 8 9 9
4 4 3 1 6 6 5 7 7 7 6 5 6 5 4 2 3 8 14 18 18 15 12 13 25 25 24 23 22 21 20 19 18 17 16 15 14 13 12 11 10 10 9 8 7 7 7 7 7
4 5 3 3 7 7 5 4 6 5 4 3 5 4 6 1 5 9 15 16 15 16 14 12 25 25 24 23 22 21 20 20 19 18 17 16 15 14 13 12 11 10 9 8 7 6 6 5 6
4 4 2 4 5 7 5 2 5 5 4 7 7 6 4 3 4 7 10 9 10 11 11 10 12 18 23 23 22 22 21 20 19 19 18 17 16 15 14 13 12 11 10 9 7 6 5 4 4
5 4 1 3 4 7 5 1 3 4 5 3 8 8 8 7 7 7 7 7 8 9 10 10 8 9 11 14 21 22 21 21 20 19 18 17 16 16 15 13 13 12 11 10 8 7 6 5 4
4 4 4 5 5 6 3 2 3 2 2 2 4 5 4 9 12 10 6 6 8 11 10 10 9 8 8 8 15 18 20 20 19 16 18 16 7 6 8 11 14 13 12 11 10 9 8 7 5
5 3 8 6 5 5 4 3 4 3 4 4 3 2 3 10 15 15 13 14 15 16 15 12 12 10 8 9 8 6 7 8 8 6 8 6 5 4 6 13 15 15 14 13 12 11 9 5 1
5 7 6 6 5 4 4 4 3 3 8 10 10 7 7 9 13 16 17 18 19 15 15 15 14 11 10 7 5 4 4 4 6 7 7 6 5 4 4 3 6 7 9 5 6 5 2 2 2
4 7 6 6 3 3 4 4 4 6 13 8 8 6 10 13 17 19 19 18 13 11 16 15 14 12 11 9 6 5 5 5 5 7 8 6 4 4 4 3 4 3 2 3 3 2 3 4 4
4 6 5 6 6 5 5 5 5 10 14 8 6 7 14 17 17 17 15 13 11 12 15 14 15 15 13 10 8 8 7 7 6 6 8 9 7 6 5 4 4 4 3 4 4 4 5 5 5
3 4 7 8 9 5 6 5 3 14 7 6 6 8 14 18 20 15 13 14 16 18 17 14 17 17 14 13 11 9 8 7 7 8 9 10 8 7 6 6 6 6 5 5 5 6 5 5 4
3 5 9 6 3 2 1 6 8 13 6 8 9 8 10 15 15 18 19 20 20 18 16 16 16 15 15 15 13 9 8 8 9 9 10 11 10 9 8 7 7 7 6 6 5 6 4 5 5
3 3 5 7 1 1 1 10 11 8 6 9 8 6 5 8 12 16 16 16 16 14 14 17 15 16 16 15 12 9 8 10 10 9 9 13 13 11 9 8 8 7 6 6 6 5 5 6 5
2 2 5 8 3 2 3 11 11 3 4 7 6 6 4 4 4 8 11 14 14 15 14 15 16 16 16 13 10 9 8 10 9 8 9 11 13 12 10 9 8 7 6 7 8 7 5 6 7
3 4 5 6 6 3 6 13 16 7 3 3 3 4 6 6 6 6 6 9 10 11 12 13 15 14 12 9 6 5 7 8 8 9 10 11 11 12 11 8 8 8 6 7 7 7 6 6 5
4 5 8 9 5 4 8 12 14 7 1 2 2 4 6 6 7 7 5 1 4 7 9 12 13 12 10 7 9 10 11 9 8 9 10 11 11 12 12 10 9 9 10 10 10 7 7 7 3
5 5 7 7 4 3 7 10 8 2 3 4 4 4 5 7 9 9 8 5 1 4 7 9 11 11 12 12 10 7 6 5 6 6 8 10 12 12 12 12 10 10 9 10 10 9 6 5 6
5 5 6 5 8 5 5 8 5 3 3 3 3 2 3 5 6 8 8 5 3 2 5 7 9 11 11 10 5 2 2 1 3 6 7 10 12 13 13 14 13 11 12 12 13 12 12 9 7
5 4 3 2 4 5 3 4 6 1 0 1 1 2 3 4 5 5 6 6 5 3 2 3 5 7 8 8 7 9 9 11 11 9 8 9 11 13 14 14 14 14 13 14 14 13 12 11 10
5 1 2 1 1 4 2 2 9 2 4 4 3 1 1 2 4 4 5 5 6 5 3 1 1 3 5 7 9 9 11 12 7 5 7 9 9 12 14 15 14 15 14 15 14 13 14 13 14
1 4 4 4 4 3 3 4 7 5 8 6 4 3 1 1 3 4 4 5 6 6 6 4 2 1 3 6 7 9 12 11 9 9 9 9 8 9 13 14 15 15 14 15 15 15 16 15 15
4 5 5 5 4 5 3 3 10 6 5 8 8 5 2 1 1 3 4 5 6 6 6 5 4 3 2 4 7 9 12 11 12 12 10 10 8 9 11 13 14 15 15 15 14 15 16 17 15
3 6 5 3 4 6 6 5 8 5 2 5 5 4 2 1 0 1 2 2 3 4 5 5 4 4 3 4 6 7 9 8 9 11 10 10 10 10 10 12 14 16 15 15 14 14 16 15 17
3 3 5 5 1 4 7 8 7 4 5 4 3 3 3 2 2 1 1 2 3 4 4 4 4 4 5 5 5 6 7 8 10 10 9 9 10 9 10 11 13 14 15 15 15 14 16 15 16
2 5 4 3 2 4 7 7 4 3 3 3 3 5 5 3 2 1 1 2 3 3 3 4 4 4 5 5 5 5 6 7 8 7 9 9 10 10 9 10 11 13 13 14 14 14 14 16 15
4 3 4 4 4 4 4 9 5 4 5 5 6 6 5 4 3 2 2 3 3 4 4 4 5 5 5 6 6 6 6 6 6 6 8 8 8 8 9 10 11 12 12 12 13 15 13 16 16
7 7 8 5 5 5 4 10 4 3 4 4 5 4 3 3 2 2 3 4 4 5 5 5 5 5 6 6 6 6 6 6 7 7 8 8 8 8 9 9 10 11 12 11 13 15 15 15 16
Wind_Direction
317 29 67 56 53 47 279 260 180 180 190 186 143 125 143 184 194 223 161 150 148 161 172 175 173 173 172 170 167 164 162 159 155 151 146 140 135 128 121 115 109 102 96 91 86 82 78 76 75
348 56 58 62 83 29 280 260 177 194 187 150 121 118 138 222 204 155 153 170 158 164 172 173 176 175 173 171 169 168 166 164 161 158 153 149 144 139 133 126 118 110 102 96 92 87 81 78 77
334 77 84 77 128 191 229 228 206 215 186 160 148 151 178 212 192 192 191 164 158 167 172 177 177 177 176 174 172 172 171 168 166 164 161 157 153 148 142 135 127 120 112 104 97 92 87 82 80
58 53 60 84 236 230 216 220 210 174 219 199 153 177 229 210 187 187 161 159 161 170 171 181 179 179 178 177 176 175 174 173 171 169 167 164 161 156 150 145 139 133 125 117 108 101 94 87 84
62 77 67 312 265 265 244 217 185 185 200 204 173 188 237 274 165 150 154 163 167 171 173 186 182 182 181 180 179 178 178 177 176 174 173 171 167 163 159 156 152 147 141 132 124 115 105 97 90
59 68 86 265 278 289 282 202 171 202 219 208 183 194 242 331 157 163 162 168 170 170 173 185 186 186 185 184 183 182 182 181 180 179 179 177 174 171 169 167 163 160 154 148 141 131 120 109 100
108 106 185 243 280 296 292 183 186 202 210 211 187 189 263 262 202 154 154 153 162 169 174 188 190 188 188 188 187 186 185 185 185 184 183 182 180 179 178 176 174 171 167 163 159 154 145 134 118
123 107 236 261 269 279 290 262 224 204 228 209 157 177 234 217 157 130 130 142 160 174 182 190 193 187 187 189 192 190 190 190 189 189 188 187 187 187 186 183 183 182 179 177 177 177 178 172 159
85 87 236 242 240 262 278 287 283 295 251 240 194 208 247 140 134 133 140 161 176 187 192 191 193 189 184 186 197 194 194 194 193 193 192 190 186 185 187 185 191 191 191 190 192 194 197 197 199
94 165 232 227 218 244 263 243 262 278 264 260 259 312 92 140 157 168 178 184 190 194 195 194 193 188 182 191 196 191 191 193 187 180 186 168 158 179 181 193 200 201 200 201 203 206 208 201 210
166 201 232 245 241 233 251 258 252 240 256 231 226 210 161 168 177 187 194 195 197 193 192 196 195 188 186 190 186 184 182 181 177 176 170 157 160 183 193 198 212 211 206 201 215 219 193 181 204
221 240 235 250 248 229 238 253 265 235 242 233 225 183 173 184 192 198 201 204 197 190 197 195 193 191 192 189 189 184 184 184 184 183 172 166 172 186 194 200 209 202 186 184 203 211 220 223 224
241 257 268 269 276 254 248 247 260 262 260 271 254 181 188 197 206 210 211 208 198 200 199 196 193 195 192 192 194 194 195 193 186 184 186 182 184 193 197 205 206 203 191 190 200 213 223 229 232
261 281 292 282 271 245 233 262 231 268 281 298 265 220 207 208 211 211 212 212 208 209 204 195 196 197 193 197 200 201 198 193 189 193 195 192 193 193 195 204 207 208 202 199 201 208 216 225 226
314 325 317 297 280 260 182 285 237 253 309 305 291 267 230 222 217 215 214 214 211 211 205 199 198 196 197 200 201 200 197 195 201 201 198 200 199 196 198 204 210 211 204 203 206 214 217 226 228
4 2 313 297 278 213 201 270 259 271 302 299 302 303 277 241 225 226 223 222 217 211 206 203 200 197 201 203 200 201 197 201 206 203 201 205 206 201 201 208 212 204 198 200 206 209 213 225 226
12 305 277 295 270 199 227 265 276 299 285 293 312 329 335 325 279 244 231 225 218 211 205 202 201 201 201 201 199 199 197 204 206 204 207 207 208 205 205 212 211 196 199 206 215 211 206 219 226
256 268 269 272 284 233 247 264 284 301 264 275 329 359 12 6 327 295 255 230 217 209 204 203 203 204 196 189 187 192 204 209 207 208 210 204 206 206 208 213 208 195 203 212 214 217 211 217 219
235 248 270 267 274 286 265 276 290 303 97 101 57 28 21 3 339 348 350 269 192 195 197 200 202 202 188 185 194 201 212 210 210 212 209 206 206 204 206 215 206 202 213 218 213 214 219 225 184
236 269 280 291 325 301 288 292 300 313 145 136 108 59 31 13 5 4 10 26 146 201 205 204 205 199 196 203 204 204 209 212 212 213 213 209 209 207 210 214 213 208 215 219 214 208 216 218 183
260 244 259 285 327 344 350 334 348 11 64 81 72 53 32 31 17 3 5 11 8 258 223 214 210 204 203 201 183 176 165 242 213 216 218 213 210 211 215 216 215 213 213 222 218 210 212 222 208
266 253 240 303 2 314 21 311 291 283 308 117 72 33 30 24 20 11 6 5 354 318 274 235 217 207 202 189 188 195 207 221 223 222 222 216 212 215 216 219 218 218 218 223 220 215 214 214 222
233 293 274 266 113 318 310 212 281 265 221 219 213 214 38 25 21 14 5 360 360 357 1 339 243 217 201 195 202 209 225 235 238 227 228 226 222 221 220 219 220 223 223 225 223 218 214 215 223
51 35 42 48 64 316 249 180 276 225 210 198 202 210 187 33 22 14 7 11 8 9 18 24 18 286 219 208 212 219 231 239 243 238 235 235 232 228 225 223 224 226 226 226 224 222 220 221 223
71 64 11 350 2 267 277 224 254 252 214 176 176 185 191 155 40 16 18 15 9 11 13 15 11 328 275 228 227 229 236 240 243 245 244 243 242 237 231 226 228 230 230 229 225 224 225 224 224
182 138 157 235 258 291 316 254 265 307 103 123 141 161 176 186 284 345 2 6 357 8 11 7 358 327 303 261 249 244 242 243 249 250 246 246 248 245 236 229 232 233 231 230 226 227 228 227 228
164 178 172 145 267 278 286 293 311 33 76 104 133 160 196 217 238 271 334 345 347 353 350 340 334 320 309 288 271 263 253 246 252 256 253 254 254 253 243 235 236 237 234 232 229 231 230 229 230
148 145 106 134 226 275 291 285 245 203 194 184 196 211 221 227 238 256 321 332 334 331 327 328 318 304 299 298 285 276 270 260 258 264 263 260 261 258 254 247 243 242 239 236 233 236 234 232 232
159 178 160 151 166 181 266 272 233 200 190 190 214 220 218 221 234 265 305 318 325 330 332 330 325 314 307 301 292 289 286 283 278 270 267 267 268 265 260 255 250 247 245 240 237 238 234 235 236
183 187 155 167 225 195 207 267 264 170 173 180 208 224 231 238 247 270 304 325 332 330 325 322 317 312 303 300 298 291 290 292 287 280 276 274 273 270 264 262 258 254 250 243 239 241 239 236 237